Flag for Germany Weather past 2 weeks in Aurich, Lower Saxony, Germany

Now
39 °F

Sprinkles. Partly cloudy.


Feels Like: 29 °F
Forecast: 39 / 45 °F
Wind: 23 mph from Northwest

Location: Wittmundhaven

Current Time: Mar 31, 2015 at 11:51:46 PM

Latest Report: Mar 31, 2015 at 10:20 PM


Visibility: N/A

Pressure: 29.53 "Hg

Humidity: 81%

Dew point: 34 °F

Location of AurichLocation

Historic Weather in Aurich — Graph

°F

Aurich temperature yesterday

Maximum temperature yesterday: 45 °F (at 11:20 AM)
Minimum temperature yesterday: 39 °F (at 8:20 AM)
Average temperature yesterday: 42 °F

Past Weeks' High & Low Weather Summary

 TemperatureHumidityPressure
High57 °F (Mar 17, 3:20 PM)100% (Mar 18, 5:20 AM)30.42 "Hg (Mar 18, 5:20 AM)
Low30 °F (Mar 23, 4:20 AM)31% (Mar 19, 3:20 PM)28.97 "Hg (Mar 29, 7:20 PM)
Average42 °F81%29.89 "Hg
* Reported Mar 16 9:20 PM — Mar 31 10:20 PM, Aurich, Weather by CustomWeather, © 2015

Note: Actual official high and low records may vary slightly from our data, if they occured in-between our weather recording intervals... More about our weather records

Advertising

Aurich weather history for previous 24 hours

 ConditionsComfort  
Time TempWeatherWind HumidityBarometerVisibility
10:20 PM
Tue, Mar 31
39 °FSprinkles. Partly cloudy.23 mph81%29.53 "HgN/A
9:20 PM37 °FSprinkles. Partly cloudy.25 mph93%29.53 "HgN/A
8:20 PM43 °FScattered clouds.29 mph71%29.50 "HgN/A
7:56 PM43 °FScattered clouds.31 mph71%29.50 "HgN/A
7:20 PM45 °FScattered clouds.29 mph66%29.47 "HgN/A
6:20 PM45 °FScattered clouds.35 mph66%29.45 "HgN/A
5:20 PM45 °FScattered clouds.38 mph66%29.42 "HgN/A
4:20 PM43 °FSprinkles. Partly sunny.41 mph76%29.36 "HgN/A
3:20 PM45 °FPartly sunny.43 mph76%29.27 "HgN/A
2:20 PM45 °FDrizzle. Partly sunny.44 mph76%29.18 "Hg4 mi
1:20 PM45 °FPartly sunny.38 mph76%29.12 "Hg5 mi
12:57 PM43 °FDrizzle. Partly sunny.37 mph93%29.12 "Hg4 mi
12:47 PM43 °FDrizzle. Fog.39 mph87%29.12 "Hg1 mi
12:20 PM45 °FDrizzle. Partly sunny.41 mph81%29.09 "Hg4 mi
11:54 AM43 °FDrizzle. Partly sunny.41 mph87%29.06 "Hg4 mi
11:20 AM45 °FPartly sunny.38 mph81%29.06 "HgN/A
11:00 AM45 °FDrizzle. Partly sunny.39 mph87%29.03 "Hg4 mi
10:20 AM46 °FPartly sunny.37 mph76%29.03 "HgN/A
9:20 AM46 °FPartly sunny.37 mph76%29.00 "Hg6 mi
8:20 AM46 °FBroken clouds.35 mph82%29.00 "Hg6 mi
7:20 AM46 °FPassing clouds.28 mph87%28.97 "Hg6 mi
6:58 AM46 °FPassing clouds.29 mph87%28.97 "Hg4 mi
6:20 AM45 °FPassing clouds.18 mph93%28.97 "Hg4 mi
5:20 AM41 °FPassing clouds.21 mph93%29.03 "Hg4 mi
4:20 AM37 °FPassing clouds.22 mph93%29.12 "Hg4 mi
3:48 AM37 °FLight rain. Passing clouds.21 mph93%29.18 "Hg5 mi
3:20 AM37 °FRain. Passing clouds.18 mph93%29.24 "Hg4 mi
2:20 AM37 °FPassing clouds.20 mph87%29.39 "Hg4 mi
1:20 AM41 °FPassing clouds.21 mph66%29.47 "HgN/A
12:20 AM41 °FPartly cloudy.13 mph70%29.53 "HgN/A
11:20 PM
Mon, Mar 30
41 °FPassing clouds.14 mph76%29.59 "HgN/A
Weather by CustomWeather, © 2015

See weather overviewHow to use our weather pages